contact:dominique.lefevre@mio.osupytheas.fr, maurice.libes@osupytheas.fr, didier.mallarino@osupytheas.fr
Project:EMSO http://www.emso-fr.org/EMSO-France
Depth: 2436.0 m
Title:EMSO Ligure Ouest : Data MII capteur AQUADOPP
Date,Latitude,Longitude,X_East,Y_North,Z_Up,Amplitude_X,Amplitude_Y,Amplitude_Z,Batterie,SoundSpeed,Heading,Pitch,Roll,Pressure,TIS,Speed,Direction
, degrees North, degrees East, m.s-1, m.s-1,m.s-1, 1, 1, 1, Volt, m.s-1, degree, degree, degree, dbar, degree_C, m.s-1, degree
2021-08-28T00:04:03,42.805,6.029,0.022,0.003,-0.019,100.0,102.0,100.0,13.4,1505.2,326.4,-0.7,1.8,2470.519,13.28,0.022,82.2
2021-08-28T00:07:03,42.805,6.029,0.064,-0.019,0.008,99.0,101.0,101.0,13.3,1505.2,325.5,-0.8,1.8,2470.549,13.28,0.066,106.5
2021-08-28T00:10:03,42.805,6.029,0.006,-0.003,-0.007,101.0,101.0,99.0,13.3,1505.2,326.3,-0.7,1.8,2470.499,13.28,0.006,116.6
2021-08-28T00:13:03,42.805,6.029,0.062,-0.004,0.0,99.0,102.0,100.0,13.3,1505.2,328.3,-0.7,1.9,2470.531,13.28,0.062,93.7
2021-08-28T00:16:03,42.805,6.029,0.016,-0.015,-0.047,100.0,102.0,99.0,13.4,1505.2,326.4,-0.8,1.8,2470.496,13.28,0.021,133.1
2021-08-28T00:19:03,42.805,6.029,0.059,-0.025,-0.011,100.0,101.0,100.0,13.4,1505.2,326.6,-0.8,1.8,2470.511,13.28,0.064,113.0
2021-08-28T00:22:03,42.805,6.029,0.052,-0.001,0.014,102.0,100.0,99.0,13.3,1505.2,326.7,-0.8,1.8,2470.494,13.28,0.052,91.1
2021-08-28T00:25:03,42.805,6.029,0.057,-0.011,-0.007,99.0,102.0,100.0,13.4,1505.2,328.8,-0.8,1.8,2470.521,13.28,0.058,100.9
2021-08-28T00:28:03,42.805,6.029,0.082,-0.027,-0.007,99.0,102.0,101.0,13.4,1505.2,327.1,-0.7,1.8,2470.517,13.28,0.086,108.2
2021-08-28T00:31:03,42.805,6.029,0.041,-0.025,-0.011,100.0,102.0,100.0,13.4,1505.2,328.0,-0.8,1.8,2470.507,13.28,0.048,121.4
2021-08-28T00:34:03,42.805,6.029,0.054,-0.044,-0.02,99.0,103.0,100.0,13.4,1505.2,328.7,-0.7,1.8,2470.509,13.28,0.069,129.2
2021-08-28T00:37:03,42.805,6.029,0.039,-0.019,-0.014,100.0,101.0,100.0,13.4,1505.2,325.3,-0.7,1.8,2470.501,13.28,0.043,116.0
2021-08-28T00:40:03,42.805,6.029,0.041,-0.026,-0.033,100.0,101.0,100.0,13.4,1505.2,330.1,-0.7,1.8,2470.446,13.28,0.048,122.4
2021-08-28T00:43:03,42.805,6.029,0.098,-0.018,0.022,100.0,101.0,100.0,13.3,1505.2,327.2,-0.8,1.8,2470.499,13.28,0.099,100.4
2021-08-28T00:46:03,42.805,6.029,0.048,-0.01,-0.018,100.0,102.0,101.0,13.3,1505.2,330.0,-0.8,1.8,2470.483,13.28,0.049,101.8
2021-08-28T00:49:03,42.805,6.029,0.02,-0.011,0.008,100.0,101.0,101.0,13.4,1505.2,329.3,-0.7,1.8,2470.485,13.28,0.022,118.8
2021-08-28T00:52:03,42.805,6.029,0.043,-0.019,0.018,100.0,101.0,100.0,13.3,1505.2,329.6,-0.7,1.8,2470.468,13.28,0.047,113.8
2021-08-28T00:55:03,42.805,6.029,0.054,-0.02,-0.004,100.0,101.0,101.0,13.4,1505.2,329.1,-0.8,1.8,2470.486,13.28,0.057,110.3
2021-08-28T00:58:03,42.805,6.029,0.038,-0.025,0.012,99.0,102.0,100.0,13.4,1505.2,328.3,-0.8,1.8,2470.485,13.28,0.045,123.3
2021-08-28T01:04:03,42.805,6.029,0.061,-0.051,-0.029,101.0,102.0,101.0,13.3,1505.2,329.0,-0.8,1.8,2470.468,13.28,0.079,129.9
2021-08-28T01:07:03,42.805,6.029,0.028,-0.016,-0.023,99.0,105.0,101.0,13.3,1505.2,329.9,-0.7,1.9,2470.503,13.28,0.032,119.7
2021-08-28T01:10:03,42.805,6.029,0.061,0.003,0.016,100.0,101.0,100.0,13.3,1505.2,329.4,-0.8,1.8,2470.475,13.28,0.061,87.2
2021-08-28T01:13:03,42.805,6.029,0.02,-0.009,-0.012,99.0,102.0,100.0,13.4,1505.2,325.0,-0.8,1.8,2470.471,13.28,0.021,114.2
2021-08-28T01:16:03,42.805,6.029,0.038,-0.016,-0.039,99.0,101.0,100.0,13.4,1505.2,327.4,-0.8,1.8,2470.488,13.28,0.041,112.8
2021-08-28T01:19:03,42.805,6.029,0.016,-0.004,0.003,99.0,104.0,99.0,13.4,1505.2,330.7,-0.7,1.9,2470.495,13.28,0.016,104.0
2021-08-28T01:22:03,42.805,6.029,0.049,-0.005,-0.02,100.0,102.0,99.0,13.4,1505.2,326.9,-0.7,1.9,2470.479,13.28,0.049,95.8
2021-08-28T01:25:03,42.805,6.029,0.066,-0.011,-0.019,101.0,102.0,100.0,13.4,1505.2,328.0,-0.8,1.8,2470.424,13.28,0.066,99.5
2021-08-28T01:28:03,42.805,6.029,0.032,-0.032,-0.021,99.0,102.0,100.0,13.3,1505.2,327.1,-0.8,1.8,2470.484,13.28,0.045,135.0
2021-08-28T01:31:03,42.805,6.029,0.038,-0.033,-0.039,100.0,102.0,100.0,13.4,1505.2,328.9,-0.7,1.8,2470.456,13.28,0.05,131.0
2021-08-28T01:34:03,42.805,6.029,0.026,-0.005,-0.016,100.0,101.0,101.0,13.3,1505.2,326.0,-0.8,1.8,2470.486,13.28,0.026,100.9
2021-08-28T01:37:03,42.805,6.029,0.033,-0.02,-0.01,100.0,102.0,101.0,13.3,1505.2,328.6,-0.7,1.8,2470.436,13.28,0.038,121.2
2021-08-28T01:40:03,42.805,6.029,0.053,-0.009,0.035,100.0,102.0,100.0,13.3,1505.2,331.2,-0.7,1.8,2470.484,13.28,0.053,99.6
2021-08-28T01:43:03,42.805,6.029,0.056,0.01,0.035,101.0,101.0,100.0,13.4,1505.2,326.8,-0.7,1.8,2470.422,13.28,0.056,79.9
2021-08-28T01:46:03,42.805,6.029,0.035,0.0,0.004,101.0,101.0,101.0,13.3,1505.2,326.1,-0.7,1.8,2470.44,13.28,0.035,90.0
2021-08-28T01:49:03,42.805,6.029,0.062,-0.035,0.011,98.0,103.0,101.0,13.4,1505.2,329.4,-0.7,1.8,2470.503,13.28,0.071,119.4
2021-08-28T01:52:03,42.805,6.029,0.044,-0.017,0.016,101.0,100.0,100.0,13.4,1505.2,327.4,-0.7,1.8,2470.45,13.28,0.047,111.1
2021-08-28T01:55:03,42.805,6.029,0.047,-0.006,0.0,99.0,102.0,100.0,13.4,1505.2,331.0,-0.8,1.8,2470.467,13.28,0.047,97.3
2021-08-28T01:58:03,42.805,6.029,0.07,-0.013,0.018,100.0,102.0,100.0,13.4,1505.2,326.6,-0.7,1.8,2470.486,13.28,0.071,100.5
2021-08-28T02:04:03,42.805,6.029,0.041,0.0,0.025,100.0,102.0,100.0,13.3,1505.2,328.8,-0.7,1.8,2470.483,13.28,0.041,90.0
2021-08-28T02:07:03,42.805,6.029,0.044,0.002,0.014,101.0,102.0,100.0,13.4,1505.2,329.5,-0.8,1.8,2470.485,13.28,0.044,87.4
2021-08-28T02:10:03,42.805,6.029,0.042,-0.001,0.011,100.0,103.0,100.0,13.4,1505.2,325.6,-0.8,1.8,2470.44,13.28,0.042,91.4
2021-08-28T02:13:03,42.805,6.029,0.055,0.016,0.015,101.0,103.0,99.0,13.4,1505.2,328.2,-0.7,1.8,2470.508,13.28,0.057,73.8
2021-08-28T02:16:03,42.805,6.029,0.053,-0.025,-0.003,100.0,102.0,101.0,13.4,1505.2,326.7,-0.7,1.8,2470.456,13.28,0.058,115.3
2021-08-28T02:19:03,42.805,6.029,0.058,-0.004,-0.001,99.0,103.0,101.0,13.4,1505.2,328.7,-0.8,1.8,2470.479,13.28,0.058,93.9
2021-08-28T02:22:03,42.805,6.029,0.007,-0.005,-0.033,100.0,104.0,99.0,13.4,1505.2,329.1,-0.8,1.9,2470.509,13.28,0.008,125.5
2021-08-28T02:25:03,42.805,6.029,0.084,-0.017,0.002,101.0,103.0,99.0,13.4,1505.2,329.6,-0.8,1.8,2470.465,13.28,0.085,101.4
2021-08-28T02:28:03,42.805,6.029,0.042,-0.001,-0.011,102.0,103.0,100.0,13.3,1505.2,328.8,-0.7,1.8,2470.482,13.28,0.042,91.4
2021-08-28T02:31:03,42.805,6.029,0.024,0.015,0.037,100.0,103.0,100.0,13.4,1505.2,326.2,-0.8,1.8,2470.499,13.28,0.028,58.0
2021-08-28T02:34:03,42.805,6.029,0.026,0.007,-0.007,101.0,102.0,99.0,13.3,1505.2,326.9,-0.8,1.8,2470.45,13.28,0.026,74.9
2021-08-28T02:37:03,42.805,6.029,0.038,-0.002,-0.039,100.0,102.0,101.0,13.4,1505.2,330.0,-0.7,1.8,2470.481,13.28,0.038,93.0
2021-08-28T02:40:03,42.805,6.029,0.003,0.01,-0.008,100.0,104.0,100.0,13.3,1505.2,327.7,-0.8,1.8,2470.481,13.28,0.01,16.7
2021-08-28T02:43:03,42.805,6.029,0.055,0.001,0.011,100.0,102.0,100.0,13.3,1505.2,325.5,-0.8,1.8,2470.47,13.28,0.055,89.0
2021-08-28T02:46:03,42.805,6.029,0.022,0.001,-0.013,100.0,103.0,100.0,13.4,1505.2,327.3,-0.7,1.8,2470.433,13.28,0.022,87.4
2021-08-28T02:49:03,42.805,6.029,0.051,0.006,0.03,99.0,103.0,100.0,13.4,1505.2,331.0,-0.7,1.8,2470.465,13.28,0.051,83.3
2021-08-28T02:52:03,42.805,6.029,0.04,-0.021,-0.029,100.0,103.0,100.0,13.3,1505.2,330.4,-0.7,1.8,2470.466,13.28,0.045,117.7
2021-08-28T02:55:03,42.805,6.029,0.095,-0.027,0.008,100.0,103.0,101.0,13.4,1505.2,325.4,-0.8,1.8,2470.494,13.28,0.098,105.9
2021-08-28T02:58:03,42.805,6.029,0.059,-0.027,-0.01,99.0,104.0,100.0,13.4,1505.2,326.4,-0.7,1.8,2470.463,13.28,0.064,114.6
2021-08-28T03:04:03,42.805,6.029,0.036,-0.016,-0.026,101.0,102.0,100.0,13.4,1505.2,330.5,-0.8,1.8,2470.495,13.28,0.039,114.0
2021-08-28T03:07:03,42.805,6.029,0.038,0.012,0.014,100.0,103.0,100.0,13.4,1505.2,327.2,-0.7,1.8,2470.476,13.28,0.039,72.5
2021-08-28T03:10:03,42.805,6.029,0.028,-0.016,-0.024,100.0,103.0,99.0,13.3,1505.2,328.8,-0.8,1.8,2470.482,13.28,0.032,119.7
2021-08-28T03:13:03,42.805,6.029,0.095,-0.04,0.003,99.0,103.0,101.0,13.4,1505.2,327.4,-0.8,1.8,2470.465,13.28,0.103,112.8
2021-08-28T03:16:03,42.805,6.029,0.017,0.003,-0.012,101.0,102.0,100.0,13.3,1505.2,329.2,-0.7,1.8,2470.441,13.28,0.017,80.0
2021-08-28T03:19:03,42.805,6.029,0.066,-0.017,-0.001,99.0,105.0,100.0,13.4,1505.2,330.0,-0.7,1.8,2470.492,13.28,0.068,104.4
2021-08-28T03:22:03,42.805,6.029,0.081,-0.011,-0.001,100.0,104.0,100.0,13.4,1505.2,327.0,-0.7,1.8,2470.463,13.28,0.081,97.7
2021-08-28T03:25:03,42.805,6.029,0.058,-0.02,0.01,101.0,104.0,100.0,13.3,1505.2,328.8,-0.7,1.8,2470.486,13.28,0.061,109.0
2021-08-28T03:28:03,42.805,6.029,0.068,-0.021,0.01,100.0,106.0,100.0,13.4,1505.2,327.4,-0.8,1.8,2470.467,13.28,0.071,107.2
2021-08-28T03:31:03,42.805,6.029,0.065,-0.009,0.002,102.0,104.0,100.0,13.4,1505.2,330.3,-0.8,1.8,2470.451,13.28,0.065,97.9
2021-08-28T03:34:03,42.805,6.029,0.082,-0.013,0.036,100.0,104.0,100.0,13.4,1505.2,325.4,-0.8,1.8,2470.478,13.28,0.083,99.0
2021-08-28T03:37:03,42.805,6.029,0.041,-0.002,0.011,100.0,104.0,100.0,13.3,1505.2,325.1,-0.8,1.8,2470.461,13.28,0.041,92.8
2021-08-28T03:40:03,42.805,6.029,0.044,-0.004,-0.016,101.0,103.0,100.0,13.3,1505.2,329.9,-0.7,1.8,2470.462,13.28,0.044,95.2
2021-08-28T03:43:03,42.805,6.029,0.069,-0.012,0.009,101.0,104.0,100.0,13.3,1505.2,327.1,-0.8,1.8,2470.447,13.28,0.07,99.9
2021-08-28T03:46:03,42.805,6.029,0.075,0.0,0.016,100.0,101.0,101.0,13.4,1505.2,326.6,-0.8,1.8,2470.47,13.28,0.074,90.0
2021-08-28T03:49:03,42.805,6.029,0.029,-0.015,-0.019,101.0,102.0,99.0,13.3,1505.2,331.1,-0.7,1.8,2470.451,13.28,0.032,117.4
2021-08-28T03:52:03,42.805,6.029,0.001,0.001,-0.037,99.0,104.0,100.0,13.4,1505.2,325.3,-0.8,1.8,2470.493,13.28,0.001,45.0
2021-08-28T03:55:03,42.805,6.029,0.044,-0.017,0.014,100.0,104.0,99.0,13.4,1505.2,328.4,-0.8,1.8,2470.489,13.28,0.047,111.1
2021-08-28T03:58:03,42.805,6.029,0.043,0.01,0.0,100.0,104.0,100.0,13.4,1505.2,327.0,-0.7,1.8,2470.487,13.28,0.044,76.9
2021-08-28T04:04:03,42.805,6.029,0.026,0.01,0.026,99.0,102.0,100.0,13.3,1505.2,325.5,-0.8,1.8,2470.471,13.28,0.027,69.0
2021-08-28T04:07:03,42.805,6.029,0.053,0.002,0.038,100.0,104.0,100.0,13.4,1505.2,331.1,-0.8,1.8,2470.462,13.28,0.053,87.8
2021-08-28T04:10:03,42.805,6.029,0.04,0.005,0.0,100.0,103.0,100.0,13.4,1505.2,326.5,-0.7,1.8,2470.467,13.28,0.04,82.9
2021-08-28T04:13:03,42.805,6.029,0.052,-0.012,0.022,101.0,103.0,100.0,13.4,1505.2,325.7,-0.7,1.8,2470.438,13.28,0.053,103.0
2021-08-28T04:16:03,42.805,6.029,0.073,0.004,0.062,99.0,103.0,101.0,13.4,1505.2,328.1,-0.7,1.8,2470.472,13.28,0.073,86.9
2021-08-28T04:19:03,42.805,6.029,0.019,-0.006,-0.008,99.0,105.0,101.0,13.4,1505.2,328.7,-0.7,1.8,2470.501,13.28,0.019,107.5
2021-08-28T04:22:03,42.805,6.029,0.041,-0.008,0.005,100.0,102.0,100.0,13.3,1505.2,328.5,-0.7,1.8,2470.479,13.28,0.041,101.0
2021-08-28T04:25:03,42.805,6.029,0.044,-0.007,-0.005,99.0,101.0,101.0,13.4,1505.2,326.4,-0.7,1.8,2470.53,13.28,0.044,99.0
2021-08-28T04:28:03,42.805,6.029,0.036,-0.014,0.0,102.0,102.0,99.0,13.4,1505.2,330.2,-0.7,1.8,2470.439,13.28,0.038,111.2
2021-08-28T04:31:03,42.805,6.029,0.074,-0.016,-0.023,100.0,103.0,100.0,13.4,1505.2,327.1,-0.8,1.8,2470.481,13.28,0.075,102.2
2021-08-28T04:34:03,42.805,6.029,0.074,-0.031,-0.012,101.0,102.0,99.0,13.4,1505.2,328.9,-0.7,1.8,2470.426,13.28,0.08,112.7
2021-08-28T04:37:03,42.805,6.029,0.055,0.003,0.014,100.0,104.0,100.0,13.4,1505.2,326.4,-0.7,1.8,2470.446,13.28,0.055,86.9
2021-08-28T04:40:03,42.805,6.029,0.025,-0.008,-0.005,99.0,103.0,100.0,13.3,1505.2,329.4,-0.8,1.8,2470.43,13.28,0.026,107.7
2021-08-28T04:43:03,42.805,6.029,0.044,-0.015,-0.025,100.0,103.0,100.0,13.4,1505.2,328.1,-0.8,1.8,2470.472,13.28,0.046,108.8
2021-08-28T04:46:03,42.805,6.029,0.041,-0.014,-0.004,101.0,103.0,99.0,13.3,1505.2,329.0,-0.7,1.8,2470.47,13.28,0.043,108.9
2021-08-28T04:49:03,42.805,6.029,0.05,-0.012,0.009,100.0,102.0,101.0,13.4,1505.2,327.9,-0.8,1.8,2470.419,13.28,0.051,103.5
2021-08-28T04:52:03,42.805,6.029,0.056,0.0,-0.013,99.0,103.0,101.0,13.3,1505.2,327.9,-0.7,1.8,2470.424,13.28,0.056,90.0
2021-08-28T04:55:03,42.805,6.029,0.076,0.009,0.05,99.0,102.0,100.0,13.4,1505.2,331.0,-0.8,1.9,2470.469,13.28,0.076,83.2
2021-08-28T04:58:03,42.805,6.029,0.03,-0.004,-0.026,100.0,103.0,101.0,13.3,1505.2,330.7,-0.7,1.8,2470.428,13.28,0.03,97.6
2021-08-28T05:04:03,42.805,6.029,0.065,-0.009,-0.006,100.0,103.0,100.0,13.3,1505.2,329.6,-0.8,1.8,2470.469,13.28,0.065,97.9
2021-08-28T05:07:03,42.805,6.029,0.04,0.014,-0.015,101.0,102.0,99.0,13.3,1505.2,325.0,-0.7,1.8,2470.428,13.28,0.042,70.7
2021-08-28T05:10:03,42.805,6.029,0.05,0.002,0.039,100.0,105.0,99.0,13.3,1505.2,329.2,-0.8,1.8,2470.469,13.28,0.05,87.7
2021-08-28T05:13:03,42.805,6.029,0.039,0.02,0.021,100.0,102.0,100.0,13.3,1505.2,326.9,-0.7,1.9,2470.435,13.28,0.043,62.9
2021-08-28T05:16:03,42.805,6.029,0.087,-0.008,0.069,101.0,105.0,99.0,13.3,1505.2,330.3,-0.8,1.8,2470.455,13.28,0.087,95.3
2021-08-28T05:19:03,42.805,6.029,0.041,0.007,-0.002,101.0,101.0,101.0,13.4,1505.2,327.3,-0.7,1.8,2470.443,13.28,0.041,80.3
2021-08-28T05:22:03,42.805,6.029,0.054,-0.01,-0.004,100.0,105.0,100.0,13.4,1505.2,329.2,-0.8,1.8,2470.456,13.28,0.054,100.5
2021-08-28T05:25:03,42.805,6.029,0.022,0.015,0.012,99.0,105.0,99.0,13.4,1505.2,325.3,-0.8,1.8,2470.472,13.28,0.026,55.7
2021-08-28T05:28:03,42.805,6.029,0.043,-0.014,-0.033,100.0,103.0,100.0,13.3,1505.2,330.1,-0.8,1.8,2470.448,13.28,0.045,108.0
2021-08-28T05:31:03,42.805,6.029,0.055,0.002,0.031,100.0,105.0,100.0,13.3,1505.2,327.2,-0.8,1.8,2470.469,13.28,0.055,87.9
2021-08-28T05:34:03,42.805,6.029,0.051,-0.017,0.004,100.0,103.0,100.0,13.4,1505.2,326.6,-0.7,1.8,2470.425,13.28,0.053,108.4
2021-08-28T05:37:03,42.805,6.029,0.033,0.01,-0.014,100.0,105.0,100.0,13.3,1505.2,330.5,-0.7,1.9,2470.489,13.28,0.034,73.1
2021-08-28T05:40:03,42.805,6.029,0.034,-0.004,-0.006,100.0,105.0,100.0,13.4,1505.2,327.7,-0.7,1.8,2470.434,13.28,0.034,96.7
2021-08-28T05:43:03,42.805,6.029,0.057,-0.012,0.013,98.0,103.0,100.0,13.4,1505.2,327.1,-0.7,1.9,2470.435,13.28,0.058,101.9
2021-08-28T05:46:03,42.805,6.029,0.08,-0.007,0.048,99.0,105.0,101.0,13.3,1505.2,325.6,-0.7,1.8,2470.455,13.28,0.08,95.0
2021-08-28T05:49:03,42.805,6.029,0.036,0.001,0.012,100.0,105.0,100.0,13.3,1505.2,326.6,-0.8,1.8,2470.448,13.28,0.036,88.4
2021-08-28T05:52:03,42.805,6.029,0.035,-0.014,-0.023,101.0,103.0,101.0,13.4,1505.2,329.4,-0.7,1.8,2470.439,13.28,0.037,111.8
2021-08-28T05:55:03,42.805,6.029,-0.002,0.016,-0.008,100.0,104.0,100.0,13.4,1505.2,328.2,-0.7,1.8,2470.442,13.28,0.016,352.9
2021-08-28T05:58:03,42.805,6.029,0.04,-0.008,0.003,101.0,106.0,99.0,13.4,1505.2,329.1,-0.7,1.9,2470.453,13.28,0.04,101.3
2021-08-28T06:04:03,42.805,6.029,0.017,-0.002,-0.005,101.0,105.0,99.0,13.4,1505.2,329.2,-0.7,1.8,2470.468,13.28,0.017,96.7
2021-08-28T06:07:03,42.805,6.029,0.084,0.008,0.018,100.0,105.0,100.0,13.4,1505.2,325.8,-0.8,1.8,2470.468,13.28,0.084,84.6
2021-08-28T06:10:03,42.805,6.029,0.07,-0.012,0.022,100.0,106.0,101.0,13.4,1505.2,325.3,-0.7,1.8,2470.48,13.28,0.071,99.7
2021-08-28T06:13:03,42.805,6.029,0.07,-0.002,0.022,101.0,104.0,100.0,13.4,1505.2,328.6,-0.8,1.8,2470.438,13.28,0.07,91.6
2021-08-28T06:16:03,42.805,6.029,0.026,0.013,-0.009,100.0,105.0,99.0,13.4,1505.2,330.2,-0.8,1.8,2470.474,13.28,0.029,63.4
2021-08-28T06:19:03,42.805,6.029,0.017,-0.024,-0.05,101.0,105.0,100.0,13.4,1505.2,326.9,-0.8,1.8,2470.434,13.28,0.029,144.7
2021-08-28T06:22:03,42.805,6.029,0.043,0.027,0.033,101.0,105.0,99.0,13.4,1505.2,325.6,-0.7,1.8,2470.461,13.28,0.05,57.9
2021-08-28T06:25:03,42.805,6.029,0.02,0.0,0.002,102.0,106.0,98.0,13.4,1505.2,329.4,-0.8,1.8,2470.508,13.28,0.02,90.0
2021-08-28T06:28:03,42.805,6.029,0.052,-0.003,0.022,99.0,105.0,100.0,13.4,1505.2,328.7,-0.7,1.8,2470.514,13.28,0.052,93.3
2021-08-28T06:31:03,42.805,6.029,0.054,-0.001,0.028,100.0,106.0,100.0,13.4,1505.2,328.8,-0.8,1.9,2470.528,13.28,0.054,91.1
2021-08-28T06:34:03,42.805,6.029,0.042,-0.007,0.02,101.0,106.0,99.0,13.3,1505.2,328.5,-0.7,1.8,2470.495,13.28,0.042,99.5
2021-08-28T06:37:03,42.805,6.029,0.073,-0.018,0.007,99.0,106.0,99.0,13.4,1505.2,328.1,-0.7,1.9,2470.503,13.28,0.075,103.8
2021-08-28T06:40:03,42.805,6.029,0.05,0.003,0.025,101.0,105.0,100.0,13.4,1505.2,328.3,-0.7,1.8,2470.528,13.28,0.05,86.6
2021-08-28T06:43:03,42.805,6.029,0.032,-0.011,-0.006,99.0,105.0,101.0,13.3,1505.2,330.7,-0.8,1.8,2470.577,13.28,0.033,109.0
2021-08-28T06:46:03,42.805,6.029,0.043,0.0,-0.002,100.0,105.0,100.0,13.4,1505.2,330.3,-0.7,1.8,2470.549,13.28,0.043,90.0
2021-08-28T06:49:03,42.805,6.029,0.006,-0.018,-0.061,99.0,105.0,101.0,13.3,1505.2,330.5,-0.7,1.8,2470.554,13.28,0.018,161.6
2021-08-28T06:52:03,42.805,6.029,0.058,-0.002,0.019,99.0,105.0,100.0,13.4,1505.2,326.4,-0.7,1.8,2470.545,13.28,0.058,92.0
2021-08-28T06:55:03,42.805,6.029,0.039,-0.003,-0.012,98.0,106.0,99.0,13.4,1505.2,325.5,-0.7,1.8,2470.572,13.28,0.039,94.4
2021-08-28T06:58:03,42.805,6.029,0.093,-0.001,0.08,101.0,103.0,100.0,13.3,1505.2,330.2,-0.7,1.8,2470.554,13.28,0.093,90.6
2021-08-28T07:04:03,42.805,6.029,0.045,-0.015,0.014,100.0,103.0,100.0,13.4,1505.2,325.8,-0.8,1.8,2470.595,13.28,0.047,108.4
2021-08-28T07:07:03,42.805,6.029,0.087,-0.001,0.017,100.0,104.0,100.0,13.4,1505.2,329.3,-0.8,1.9,2470.614,13.28,0.087,90.7
2021-08-28T07:10:03,42.805,6.029,0.056,0.0,-0.004,100.0,103.0,100.0,13.4,1505.2,325.5,-0.8,1.9,2470.578,13.28,0.056,90.0
2021-08-28T07:13:03,42.805,6.029,0.062,-0.028,-0.011,101.0,103.0,101.0,13.4,1505.2,325.9,-0.7,1.8,2470.542,13.28,0.068,114.3
2021-08-28T07:16:03,42.805,6.029,0.067,-0.023,-0.013,100.0,104.0,100.0,13.4,1505.2,325.9,-0.7,1.8,2470.564,13.28,0.07,108.9
2021-08-28T07:19:03,42.805,6.029,-0.001,0.008,-0.033,101.0,104.0,101.0,13.4,1505.2,328.0,-0.7,1.8,2470.584,13.28,0.008,352.9
2021-08-28T07:22:03,42.805,6.029,0.011,-0.006,0.01,100.0,102.0,100.0,13.4,1505.2,330.1,-0.7,1.8,2470.557,13.28,0.012,118.6
2021-08-28T07:25:03,42.805,6.029,0.054,-0.018,-0.014,100.0,104.0,100.0,13.4,1505.2,329.1,-0.7,1.8,2470.588,13.28,0.056,108.4
2021-08-28T07:28:03,42.805,6.029,0.059,0.0,0.039,101.0,103.0,101.0,13.3,1505.2,329.0,-0.7,1.8,2470.566,13.28,0.058,90.0
2021-08-28T07:31:03,42.805,6.029,0.043,-0.005,0.011,100.0,106.0,100.0,13.4,1505.2,326.6,-0.8,1.8,2470.53,13.28,0.043,96.6
2021-08-28T07:34:03,42.805,6.029,0.039,0.012,0.003,100.0,105.0,101.0,13.3,1505.2,325.3,-0.8,1.8,2470.547,13.28,0.04,72.9
2021-08-28T07:37:03,42.805,6.029,0.055,-0.011,-0.005,100.0,105.0,101.0,13.3,1505.2,330.6,-0.8,1.9,2470.526,13.28,0.056,101.3
2021-08-28T07:40:03,42.805,6.029,0.059,0.0,0.02,99.0,105.0,101.0,13.3,1505.2,328.3,-0.7,1.8,2470.532,13.28,0.058,90.0
2021-08-28T07:43:03,42.805,6.029,0.015,0.0,-0.013,101.0,104.0,100.0,13.4,1505.2,329.8,-0.7,1.8,2470.504,13.28,0.015,90.0
2021-08-28T07:46:03,42.805,6.029,0.049,-0.005,0.041,102.0,106.0,99.0,13.4,1505.2,328.7,-0.7,1.8,2470.528,13.28,0.049,95.8
2021-08-28T07:49:03,42.805,6.029,0.066,-0.009,0.018,101.0,105.0,100.0,13.3,1505.2,328.1,-0.7,1.8,2470.47,13.28,0.066,97.8
2021-08-28T07:52:03,42.805,6.029,0.069,-0.01,0.013,99.0,105.0,100.0,13.4,1505.2,328.9,-0.7,1.8,2470.553,13.28,0.069,98.2
2021-08-28T07:55:03,42.805,6.029,0.041,-0.006,-0.002,100.0,105.0,101.0,13.3,1505.2,328.5,-0.8,1.8,2470.557,13.28,0.041,98.3
2021-08-28T07:58:03,42.805,6.029,0.051,-0.024,-0.012,100.0,104.0,99.0,13.4,1505.2,328.6,-0.8,1.8,2470.518,13.28,0.056,115.2
2021-08-28T08:04:03,42.805,6.029,0.038,0.015,0.025,101.0,105.0,100.0,13.4,1505.2,326.6,-0.8,1.8,2470.586,13.28,0.04,68.5
2021-08-28T08:07:03,42.805,6.029,0.034,0.006,0.012,99.0,104.0,100.0,13.4,1505.2,327.3,-0.8,1.8,2470.534,13.28,0.034,80.0
2021-08-28T08:10:03,42.805,6.029,0.057,-0.018,-0.004,100.0,105.0,100.0,13.4,1505.2,326.4,-0.8,1.8,2470.57,13.28,0.059,107.5
2021-08-28T08:13:03,42.805,6.029,0.07,-0.006,0.049,99.0,105.0,100.0,13.4,1505.2,329.2,-0.8,1.8,2470.531,13.28,0.07,94.9
2021-08-28T08:16:03,42.805,6.029,0.076,-0.002,0.043,101.0,103.0,100.0,13.4,1505.2,329.1,-0.8,1.8,2470.55,13.28,0.076,91.5
2021-08-28T08:19:03,42.805,6.029,0.035,-0.017,-0.006,99.0,105.0,100.0,13.3,1505.2,329.1,-0.8,1.8,2470.52,13.28,0.038,115.9
2021-08-28T08:22:03,42.805,6.029,0.048,-0.018,-0.014,100.0,104.0,100.0,13.4,1505.2,324.8,-0.7,1.8,2470.564,13.28,0.051,110.6
2021-08-28T08:25:03,42.805,6.029,0.062,0.01,0.034,100.0,105.0,100.0,13.3,1505.2,328.8,-0.8,1.8,2470.521,13.28,0.062,80.8
2021-08-28T08:28:03,42.805,6.029,0.055,0.001,0.03,101.0,105.0,100.0,13.4,1505.2,329.3,-0.8,1.8,2470.545,13.28,0.055,89.0
2021-08-28T08:31:03,42.805,6.029,0.051,-0.008,0.013,100.0,103.0,101.0,13.4,1505.2,327.0,-0.8,1.8,2470.517,13.28,0.051,98.9
2021-08-28T08:34:03,42.805,6.029,0.038,-0.008,-0.006,101.0,104.0,100.0,13.4,1505.2,327.4,-0.7,1.8,2470.549,13.28,0.038,101.9
2021-08-28T08:37:03,42.805,6.029,0.041,-0.018,-0.01,100.0,104.0,100.0,13.4,1505.2,326.8,-0.7,1.8,2470.516,13.28,0.044,113.7
2021-08-28T08:40:03,42.805,6.029,0.024,0.009,0.009,100.0,105.0,100.0,13.4,1505.2,327.1,-0.8,1.8,2470.568,13.28,0.025,69.4
2021-08-28T08:43:03,42.805,6.029,0.044,-0.028,0.008,99.0,105.0,100.0,13.4,1505.2,327.2,-0.8,1.8,2470.614,13.28,0.052,122.5
2021-08-28T08:46:03,42.805,6.029,0.064,0.019,0.035,100.0,104.0,100.0,13.3,1505.2,329.1,-0.7,1.8,2470.623,13.28,0.066,73.5
2021-08-28T08:49:03,42.805,6.029,0.049,-0.01,-0.014,101.0,104.0,99.0,13.3,1505.2,329.0,-0.8,1.8,2470.585,13.28,0.05,101.5
2021-08-28T08:52:03,42.805,6.029,0.044,0.008,0.0,100.0,103.0,101.0,13.4,1505.2,325.4,-0.7,1.8,2470.6,13.28,0.044,79.7
2021-08-28T08:55:03,42.805,6.029,0.047,-0.014,-0.013,100.0,104.0,101.0,13.4,1505.2,330.9,-0.7,1.9,2470.567,13.28,0.049,106.6
2021-08-28T08:58:03,42.805,6.029,0.06,-0.006,0.008,100.0,104.0,100.0,13.4,1505.2,328.9,-0.7,1.8,2470.587,13.28,0.06,95.7
2021-08-28T09:04:03,42.805,6.029,0.06,-0.003,0.016,101.0,103.0,100.0,13.4,1505.2,327.0,-0.7,1.8,2470.684,13.28,0.06,92.9
2021-08-28T09:07:03,42.805,6.029,0.07,0.027,0.051,101.0,102.0,101.0,13.4,1505.2,327.0,-0.8,1.8,2470.601,13.28,0.075,68.9
2021-08-28T09:10:03,42.805,6.029,0.038,0.01,0.02,99.0,105.0,101.0,13.4,1505.2,327.1,-0.7,1.8,2470.56,13.28,0.039,75.3
2021-08-28T09:13:03,42.805,6.029,0.078,-0.03,-0.001,99.0,104.0,101.0,13.3,1505.2,329.6,-0.8,1.9,2470.618,13.28,0.083,111.0
2021-08-28T09:16:03,42.805,6.029,0.055,0.005,0.038,100.0,104.0,100.0,13.3,1505.2,329.6,-0.7,1.8,2470.64,13.28,0.055,84.8
2021-08-28T09:19:03,42.805,6.029,0.048,-0.008,0.001,101.0,106.0,100.0,13.3,1505.2,327.1,-0.7,1.8,2470.581,13.28,0.048,99.5
2021-08-28T09:22:03,42.805,6.029,0.019,0.002,-0.023,100.0,104.0,100.0,13.4,1505.2,327.1,-0.8,1.8,2470.612,13.28,0.019,84.0
2021-08-28T09:25:03,42.805,6.029,0.011,0.007,0.019,100.0,104.0,100.0,13.4,1505.2,327.3,-0.8,1.8,2470.572,13.28,0.013,57.5
2021-08-28T09:28:03,42.805,6.029,0.055,0.016,0.033,99.0,104.0,101.0,13.4,1505.2,328.4,-0.7,1.8,2470.61,13.28,0.057,73.8
2021-08-28T09:31:03,42.805,6.029,0.022,-0.014,-0.01,100.0,105.0,99.0,13.3,1505.2,330.8,-0.8,1.8,2470.605,13.28,0.026,122.5
2021-08-28T09:34:03,42.805,6.029,0.054,-0.007,-0.019,100.0,104.0,100.0,13.4,1505.2,327.0,-0.8,1.8,2470.581,13.28,0.054,97.4
2021-08-28T09:37:03,42.805,6.029,0.095,-0.006,0.046,100.0,104.0,100.0,13.4,1505.2,327.9,-0.8,1.8,2470.575,13.28,0.095,93.6
2021-08-28T09:40:03,42.805,6.029,0.085,-0.028,0.005,101.0,105.0,100.0,13.4,1505.2,325.5,-0.7,1.8,2470.572,13.28,0.089,108.2
2021-08-28T09:43:03,42.805,6.029,0.089,-0.028,0.0,101.0,103.0,100.0,13.4,1505.2,326.8,-0.8,1.8,2470.563,13.28,0.093,107.5
2021-08-28T09:46:03,42.805,6.029,0.059,-0.028,-0.006,100.0,103.0,101.0,13.4,1505.2,326.9,-0.8,1.8,2470.579,13.28,0.065,115.4
2021-08-28T09:49:03,42.805,6.029,0.036,0.001,0.024,101.0,103.0,100.0,13.4,1505.2,328.0,-0.7,1.8,2470.582,13.28,0.036,88.4
2021-08-28T09:52:03,42.805,6.029,0.061,0.001,0.028,101.0,104.0,100.0,13.3,1505.2,327.0,-0.7,1.8,2470.546,13.28,0.061,89.1
2021-08-28T09:55:03,42.805,6.029,0.058,0.002,0.031,101.0,105.0,100.0,13.4,1505.2,327.7,-0.7,1.8,2470.551,13.28,0.058,88.0
2021-08-28T09:58:03,42.805,6.029,0.073,-0.015,-0.004,101.0,104.0,100.0,13.4,1505.2,328.1,-0.8,1.8,2470.58,13.28,0.074,101.6
2021-08-28T10:04:03,42.805,6.029,0.066,-0.024,-0.006,100.0,105.0,100.0,13.4,1505.2,327.6,-0.7,1.9,2470.605,13.28,0.07,110.0